Time,TemperatureF,DewpointF,PressureIn,WindDirection,WindDirectionDegrees,WindSpeedMPH,WindSpeedGustMPH,Humidity,HourlyPrecipIn,Conditions,Clouds,dailyrainin,SoftwareType,DateUTC
2013-05-09 00:03:00,61.0,-99.9,-100.00,North,-999,-999.0,-999.0,-999,0.00,,,0.09,,2013-05-09 04:03:00,
2013-05-09 00:13:00,61.0,-99.9,-100.00,North,-999,-999.0,-999.0,-999,0.00,,,0.09,,2013-05-09 04:13:00,
2013-05-09 00:23:00,61.0,-99.9,-100.00,North,-999,-999.0,-999.0,-999,0.00,,,0.09,,2013-05-09 04:23:00,
2013-05-09 00:30:00,61.0,-99.9,-100.00,North,-999,-999.0,-999.0,-999,0.00,,,0.09,,2013-05-09 04:30:00,
2013-05-09 01:02:00,61.0,-99.9,-100.00,North,-999,-999.0,-999.0,-999,0.00,,,0.09,,2013-05-09 05:02:00,
2013-05-09 01:12:00,61.0,-99.9,-100.00,North,-999,-999.0,-999.0,-999,0.00,,,0.09,,2013-05-09 05:12:00,
2013-05-09 01:22:00,61.0,-99.9,-100.00,North,-999,-999.0,-999.0,-999,0.00,,,0.09,,2013-05-09 05:22:00,
2013-05-09 01:30:00,60.0,-99.9,-100.00,North,-999,-999.0,-999.0,-999,0.05,,,0.14,,2013-05-09 05:30:00,
2013-05-09 01:52:00,60.0,-99.9,-100.00,North,-999,-999.0,-999.0,-999,0.05,,,0.14,,2013-05-09 05:52:00,
2013-05-09 02:02:00,60.0,-99.9,-100.00,North,-999,-999.0,-999.0,-999,0.05,,,0.14,,2013-05-09 06:02:00,
2013-05-09 02:12:00,60.0,-99.9,-100.00,North,-999,-999.0,-999.0,-999,0.05,,,0.14,,2013-05-09 06:12:00,
2013-05-09 02:22:00,60.0,-99.9,-100.00,North,-999,-999.0,-999.0,-999,0.05,,,0.14,,2013-05-09 06:22:00,
2013-05-09 02:30:00,59.0,-99.9,-100.00,North,-999,-999.0,-999.0,-999,0.09,,,0.23,,2013-05-09 06:30:00,
2013-05-09 02:52:00,59.0,-99.9,-100.00,North,-999,-999.0,-999.0,-999,0.09,,,0.23,,2013-05-09 06:52:00,
2013-05-09 03:02:00,59.0,-99.9,-100.00,North,-999,-999.0,-999.0,-999,0.09,,,0.23,,2013-05-09 07:02:00,
2013-05-09 03:12:00,59.0,-99.9,-100.00,North,-999,-999.0,-999.0,-999,0.09,,,0.23,,2013-05-09 07:12:00,
2013-05-09 03:22:00,59.0,-99.9,-100.00,North,-999,-999.0,-999.0,-999,0.09,,,0.23,,2013-05-09 07:22:00,
2013-05-09 03:30:00,59.0,-99.9,-100.00,North,-999,-999.0,-999.0,-999,0.00,,,0.23,,2013-05-09 07:30:00,
2013-05-09 04:02:00,59.0,-99.9,-100.00,North,-999,-999.0,-999.0,-999,0.00,,,0.23,,2013-05-09 08:02:00,
2013-05-09 04:11:00,59.0,-99.9,-100.00,North,-999,-999.0,-999.0,-999,0.00,,,0.23,,2013-05-09 08:11:00,
2013-05-09 04:22:00,59.0,-99.9,-100.00,North,-999,-999.0,-999.0,-999,0.00,,,0.23,,2013-05-09 08:22:00,
2013-05-09 04:30:00,57.0,-99.9,-100.00,North,-999,-999.0,-999.0,-999,0.00,,,0.23,,2013-05-09 08:30:00,
2013-05-09 05:02:00,57.0,-99.9,-100.00,North,-999,-999.0,-999.0,-999,0.00,,,0.23,,2013-05-09 09:02:00,
2013-05-09 05:12:00,57.0,-99.9,-100.00,North,-999,-999.0,-999.0,-999,0.00,,,0.23,,2013-05-09 09:12:00,
2013-05-09 05:22:00,57.0,-99.9,-100.00,North,-999,-999.0,-999.0,-999,0.00,,,0.23,,2013-05-09 09:22:00,
2013-05-09 05:30:00,57.0,-99.9,-100.00,North,-999,-999.0,-999.0,-999,0.00,,,0.23,,2013-05-09 09:30:00,
2013-05-09 06:03:00,57.0,-99.9,-100.00,North,-999,-999.0,-999.0,-999,0.00,,,0.23,,2013-05-09 10:03:00,
2013-05-09 06:13:00,57.0,-99.9,-100.00,North,-999,-999.0,-999.0,-999,0.00,,,0.23,,2013-05-09 10:13:00,
2013-05-09 06:23:00,57.0,-99.9,-100.00,North,-999,-999.0,-999.0,-999,0.00,,,0.23,,2013-05-09 10:23:00,
2013-05-09 06:30:00,57.0,-99.9,-100.00,North,-999,-999.0,-999.0,-999,0.00,,,0.23,,2013-05-09 10:30:00,
2013-05-09 06:53:00,57.0,-99.9,-100.00,North,-999,-999.0,-999.0,-999,0.00,,,0.23,,2013-05-09 10:53:00,
2013-05-09 07:03:00,57.0,-99.9,-100.00,North,-999,-999.0,-999.0,-999,0.00,,,0.23,,2013-05-09 11:03:00,
2013-05-09 07:12:00,57.0,-99.9,-100.00,North,-999,-999.0,-999.0,-999,0.00,,,0.23,,2013-05-09 11:12:00,
2013-05-09 07:23:00,57.0,-99.9,-100.00,North,-999,-999.0,-999.0,-999,0.00,,,0.23,,2013-05-09 11:23:00,
2013-05-09 07:30:00,57.0,-99.9,-100.00,North,-999,-999.0,-999.0,-999,0.00,,,0.23,,2013-05-09 11:30:00,
2013-05-09 07:52:00,57.0,-99.9,-100.00,North,-999,-999.0,-999.0,-999,0.00,,,0.23,,2013-05-09 11:52:00,
2013-05-09 08:02:00,57.0,-99.9,-100.00,North,-999,-999.0,-999.0,-999,0.00,,,0.23,,2013-05-09 12:02:00,
2013-05-09 08:12:00,57.0,-99.9,-100.00,North,-999,-999.0,-999.0,-999,0.00,,,0.23,,2013-05-09 12:12:00,
2013-05-09 08:22:00,57.0,-99.9,-100.00,North,-999,-999.0,-999.0,-999,0.00,,,0.23,,2013-05-09 12:22:00,
2013-05-09 08:30:00,58.0,-99.9,-100.00,North,-999,-999.0,-999.0,-999,0.00,,,0.23,,2013-05-09 12:30:00,
2013-05-09 09:02:00,58.0,-99.9,-100.00,North,-999,-999.0,-999.0,-999,0.00,,,0.23,,2013-05-09 13:02:00,
2013-05-09 09:12:00,58.0,-99.9,-100.00,North,-999,-999.0,-999.0,-999,0.00,,,0.23,,2013-05-09 13:12:00,
2013-05-09 09:22:00,58.0,-99.9,-100.00,North,-999,-999.0,-999.0,-999,0.00,,,0.23,,2013-05-09 13:22:00,
2013-05-09 09:30:00,59.0,-99.9,-100.00,North,-999,-999.0,-999.0,-999,0.00,,,0.23,,2013-05-09 13:30:00,
2013-05-09 10:02:00,59.0,-99.9,-100.00,North,-999,-999.0,-999.0,-999,0.00,,,0.23,,2013-05-09 14:02:00,
2013-05-09 10:11:00,59.0,-99.9,-100.00,North,-999,-999.0,-999.0,-999,0.00,,,0.23,,2013-05-09 14:11:00,
2013-05-09 10:22:00,59.0,-99.9,-100.00,North,-999,-999.0,-999.0,-999,0.00,,,0.23,,2013-05-09 14:22:00,
2013-05-09 10:30:00,62.0,-99.9,-100.00,North,-999,-999.0,-999.0,-999,0.00,,,0.23,,2013-05-09 14:30:00,
2013-05-09 10:52:00,62.0,-99.9,-100.00,North,-999,-999.0,-999.0,-999,0.00,,,0.23,,2013-05-09 14:52:00,
2013-05-09 11:02:00,62.0,-99.9,-100.00,North,-999,-999.0,-999.0,-999,0.00,,,0.23,,2013-05-09 15:02:00,
2013-05-09 11:12:00,62.0,-99.9,-100.00,North,-999,-999.0,-999.0,-999,0.00,,,0.23,,2013-05-09 15:12:00,
2013-05-09 11:22:00,62.0,-99.9,-100.00,North,-999,-999.0,-999.0,-999,0.00,,,0.23,,2013-05-09 15:22:00,
2013-05-09 11:30:00,62.0,-99.9,-100.00,North,-999,-999.0,-999.0,-999,0.00,,,0.23,,2013-05-09 15:30:00,
2013-05-09 12:03:00,62.0,-99.9,-100.00,North,-999,-999.0,-999.0,-999,0.00,,,0.23,,2013-05-09 16:03:00,
2013-05-09 12:13:00,62.0,-99.9,-100.00,North,-999,-999.0,-999.0,-999,0.00,,,0.23,,2013-05-09 16:13:00,
2013-05-09 12:23:00,62.0,-99.9,-100.00,North,-999,-999.0,-999.0,-999,0.00,,,0.23,,2013-05-09 16:23:00,
2013-05-09 12:30:00,64.0,-99.9,-100.00,North,-999,-999.0,-999.0,-999,0.00,,,0.23,,2013-05-09 16:30:00,
2013-05-09 12:53:00,64.0,-99.9,-100.00,North,-999,-999.0,-999.0,-999,0.00,,,0.23,,2013-05-09 16:53:00,
2013-05-09 13:03:00,64.0,-99.9,-100.00,North,-999,-999.0,-999.0,-999,0.00,,,0.23,,2013-05-09 17:03:00,
2013-05-09 13:12:00,64.0,-99.9,-100.00,North,-999,-999.0,-999.0,-999,0.00,,,0.23,,2013-05-09 17:12:00,
2013-05-09 13:22:00,64.0,-99.9,-100.00,North,-999,-999.0,-999.0,-999,0.00,,,0.23,,2013-05-09 17:22:00,
2013-05-09 13:30:00,67.0,-99.9,-100.00,North,-999,-999.0,-999.0,-999,0.00,,,0.14,,2013-05-09 17:30:00,
2013-05-09 14:02:00,67.0,-99.9,-100.00,North,-999,-999.0,-999.0,-999,0.00,,,0.14,,2013-05-09 18:02:00,
2013-05-09 14:12:00,67.0,-99.9,-100.00,North,-999,-999.0,-999.0,-999,0.00,,,0.14,,2013-05-09 18:12:00,
2013-05-09 14:22:00,67.0,-99.9,-100.00,North,-999,-999.0,-999.0,-999,0.00,,,0.14,,2013-05-09 18:22:00,
2013-05-09 15:01:00,64.0,-99.9,-100.00,North,-999,-999.0,-999.0,-999,-99.99,,,0.14,,2013-05-09 19:01:00,
2013-05-09 15:12:00,64.0,-99.9,-100.00,North,-999,-999.0,-999.0,-999,-99.99,,,0.14,,2013-05-09 19:12:00,
2013-05-09 15:22:00,64.0,-99.9,-100.00,North,-999,-999.0,-999.0,-999,-99.99,,,0.14,,2013-05-09 19:22:00,
2013-05-09 15:30:00,63.0,-99.9,-100.00,North,-999,-999.0,-999.0,-999,0.00,,,0.14,,2013-05-09 19:30:00,
2013-05-09 15:32:00,64.0,-99.9,-100.00,North,-999,-999.0,-999.0,-999,-99.99,,,0.14,,2013-05-09 19:32:00,
2013-05-09 15:42:00,64.0,-99.9,-100.00,North,-999,-999.0,-999.0,-999,-99.99,,,0.14,,2013-05-09 19:42:00,
2013-05-09 15:52:00,63.0,-99.9,-100.00,North,-999,-999.0,-999.0,-999,0.00,,,0.14,,2013-05-09 19:52:00,
2013-05-09 16:02:00,63.0,-99.9,-100.00,North,-999,-999.0,-999.0,-999,0.00,,,0.14,,2013-05-09 20:02:00,
2013-05-09 16:11:00,63.0,-99.9,-100.00,North,-999,-999.0,-999.0,-999,0.00,,,0.14,,2013-05-09 20:11:00,
2013-05-09 16:22:00,63.0,-99.9,-100.00,North,-999,-999.0,-999.0,-999,0.00,,,0.14,,2013-05-09 20:22:00,
2013-05-09 16:30:00,62.0,-99.9,-100.00,North,-999,-999.0,-999.0,-999,0.00,,,0.14,,2013-05-09 20:30:00,
2013-05-09 16:52:00,62.0,-99.9,-100.00,North,-999,-999.0,-999.0,-999,0.00,,,0.14,,2013-05-09 20:52:00,
2013-05-09 17:02:00,62.0,-99.9,-100.00,North,-999,-999.0,-999.0,-999,0.00,,,0.14,,2013-05-09 21:02:00,
2013-05-09 17:12:00,62.0,-99.9,-100.00,North,-999,-999.0,-999.0,-999,0.00,,,0.14,,2013-05-09 21:12:00,
2013-05-09 17:23:00,62.0,-99.9,-100.00,North,-999,-999.0,-999.0,-999,0.00,,,0.14,,2013-05-09 21:23:00,
2013-05-09 17:30:00,64.0,-99.9,-100.00,North,-999,-999.0,-999.0,-999,0.00,,,0.14,,2013-05-09 21:30:00,
2013-05-09 18:03:00,64.0,-99.9,-100.00,North,-999,-999.0,-999.0,-999,0.00,,,0.14,,2013-05-09 22:03:00,
2013-05-09 18:13:00,64.0,-99.9,-100.00,North,-999,-999.0,-999.0,-999,0.00,,,0.14,,2013-05-09 22:13:00,
2013-05-09 18:23:00,64.0,-99.9,-100.00,North,-999,-999.0,-999.0,-999,0.00,,,0.14,,2013-05-09 22:23:00,
2013-05-09 18:30:00,63.0,-99.9,-100.00,North,-999,-999.0,-999.0,-999,0.00,,,0.14,,2013-05-09 22:30:00,
2013-05-09 19:03:00,63.0,-99.9,-100.00,North,-999,-999.0,-999.0,-999,0.00,,,0.14,,2013-05-09 23:03:00,
2013-05-09 19:12:00,63.0,-99.9,-100.00,North,-999,-999.0,-999.0,-999,0.00,,,0.14,,2013-05-09 23:12:00,
2013-05-09 19:22:00,63.0,-99.9,-100.00,North,-999,-999.0,-999.0,-999,0.00,,,0.14,,2013-05-09 23:22:00,
2013-05-09 19:30:00,61.0,-99.9,-100.00,North,-999,-999.0,-999.0,-999,0.00,,,0.14,,2013-05-09 23:30:00,
2013-05-09 19:53:00,61.0,-99.9,-100.00,North,-999,-999.0,-999.0,-999,0.00,,,0.14,,2013-05-09 23:53:00,
2013-05-09 20:02:00,61.0,-99.9,-100.00,North,-999,-999.0,-999.0,-999,0.00,,,0.14,,2013-05-10 00:02:00,
2013-05-09 20:11:00,61.0,-99.9,-100.00,North,-999,-999.0,-999.0,-999,0.00,,,0.14,,2013-05-10 00:11:00,
2013-05-09 20:22:00,61.0,-99.9,-100.00,North,-999,-999.0,-999.0,-999,0.00,,,0.14,,2013-05-10 00:22:00,
2013-05-09 20:30:00,58.0,-99.9,-100.00,North,-999,-999.0,-999.0,-999,0.00,,,0.14,,2013-05-10 00:30:00,
2013-05-09 20:52:00,58.0,-99.9,-100.00,North,-999,-999.0,-999.0,-999,0.00,,,0.14,,2013-05-10 00:52:00,
2013-05-09 21:01:00,58.0,-99.9,-100.00,North,-999,-999.0,-999.0,-999,0.00,,,0.14,,2013-05-10 01:01:00,
2013-05-09 21:11:00,58.0,-99.9,-100.00,North,-999,-999.0,-999.0,-999,0.00,,,0.14,,2013-05-10 01:11:00,
2013-05-09 21:22:00,58.0,-99.9,-100.00,North,-999,-999.0,-999.0,-999,0.00,,,0.14,,2013-05-10 01:22:00,
2013-05-09 21:30:00,59.0,-99.9,-100.00,North,-999,-999.0,-999.0,-999,0.00,,,0.14,,2013-05-10 01:30:00,
2013-05-09 21:52:00,59.0,-99.9,-100.00,North,-999,-999.0,-999.0,-999,0.00,,,0.14,,2013-05-10 01:52:00,
2013-05-09 22:02:00,59.0,-99.9,-100.00,North,-999,-999.0,-999.0,-999,0.00,,,0.14,,2013-05-10 02:02:00,
2013-05-09 22:12:00,59.0,-99.9,-100.00,North,-999,-999.0,-999.0,-999,0.00,,,0.14,,2013-05-10 02:12:00,
2013-05-09 22:22:00,59.0,-99.9,-100.00,North,-999,-999.0,-999.0,-999,0.00,,,0.14,,2013-05-10 02:22:00,
2013-05-09 22:30:00,57.0,-99.9,-100.00,North,-999,-999.0,-999.0,-999,0.00,,,0.14,,2013-05-10 02:30:00,
2013-05-09 22:53:00,57.0,-99.9,-100.00,North,-999,-999.0,-999.0,-999,0.00,,,0.14,,2013-05-10 02:53:00,
2013-05-09 23:01:00,57.0,-99.9,-100.00,North,-999,-999.0,-999.0,-999,0.00,,,0.14,,2013-05-10 03:01:00,
2013-05-09 23:11:00,57.0,-99.9,-100.00,North,-999,-999.0,-999.0,-999,0.00,,,0.14,,2013-05-10 03:11:00,
2013-05-09 23:22:00,57.0,-99.9,-100.00,North,-999,-999.0,-999.0,-999,0.00,,,0.14,,2013-05-10 03:22:00,
2013-05-09 23:30:00,57.0,-99.9,-100.00,North,-999,-999.0,-999.0,-999,0.00,,,0.14,,2013-05-10 03:30:00,